Regional Weather Roundup
Issued by NWS

Home | Current Version | Previous Version | Graphics & Text | Print | Product List | Glossary On
Versions: 1 2 3 4 5 6 7 8 9 10 11 12 13 14 15 16 17 18 19 20 21 22 23 24 25 26 27 28 29 30 31 32 33 34 35 36 37 38 39 40 41 42 43 44 45 46 47 48 49 50
000
ASUS43 KMKX 201110
RWRWI

WISCONSIN REGIONAL WEATHER ROUNDUP
NATIONAL WEATHER SERVICE MILWAUKEE/SULLIVAN WI
600 AM CDT FRI APR 20 2018

NOTE: "FAIR" INDICATES FEW OR NO CLOUDS BELOW 12,000 FEET WITH NO
SIGNIFICANT WEATHER AND/OR OBSTRUCTIONS TO VISIBILITY.

WIZ001-002-006>008-014>016-023>028-201200-
NORTHWEST WISCONSIN

CITY           SKY/WX    TMP DP  RH WIND       PRES   REMARKS
SUPERIOR ARPT  FAIR      32  20  63 SW8       30.44S WCI  24
ASHLAND        FAIR      34  19  54 SW8       30.44S WCI  27
HAYWARD        FAIR      20  16  84 CALM      30.46R
SIREN          FAIR      26  21  83 CALM      30.47S
CUMBERLAND     FAIR      25  19  80 CALM      30.47R
RICE LAKE      FAIR      23  22  97 CALM      30.49R
CHETEK         FAIR      22  21  95 CALM      30.48S
LADYSMITH      FAIR      22  18  85 CALM      30.47S
EAU CLAIRE     FAIR      25  22  88 CALM      30.48R
MENOMONIE      FAIR      26  23  87 CALM      30.48S
NEW RICHMOND   FAIR      25  22  88 CALM      30.48S
OSCEOLA        FAIR      25  22  89 CALM      30.51S
$$

WIZ003>005-009-010-017-018-201200-
NORTH CENTRAL WISCONSIN

CITY           SKY/WX    TMP DP  RH WIND       PRES   REMARKS
MANITOWISH WTR FAIR      15  12  88 CALM      30.44S
ARBOR VITAE    FAIR      22  15  74 CALM      30.44S
WOODRUFF       FAIR      22  15  74 CALM      30.44S
RHINELANDER    FAIR      19  12  74 CALM      30.44S
EAGLE RIVER    FAIR      17  13  85 CALM      30.43R
LAND O LAKES   FAIR      12   9  87 CALM      30.45R
PHILLIPS       FAIR      17  15  93 CALM      30.45S
TOMAHAWK       FAIR      14  10  87 CALM      30.46S
MEDFORD        FAIR      20  16  83 CALM      30.45S
MERRILL          N/A     16  13  88 CALM      30.47S
$$

WIZ029-030-035-036-043>047-201200-
CENTRAL WISCONSIN

CITY           SKY/WX    TMP DP  RH WIND       PRES   REMARKS
WAUSAU         FAIR      23  20  88 CALM      30.45R
MOSINEE        CLEAR     28  18  64 NW3       30.47R
MARSHFIELD     FAIR      30  16  56 NW5       30.45S WCI  25
STEVENS POINT  FAIR      17  17  98 CALM      30.48R
WAUPACA        FAIR      26  20  76 CALM      30.47R
WAUTOMA        FAIR      24  20  84 CALM      30.48R
WISC RAPIDS    FAIR      21  15  78 CALM      30.48S
CAMP DOUGLAS   FAIR      19  17  94 CALM      30.48R
$$

WIZ011>013-019>022-031-037>040-048>050-201200-
NORTHEAST WISCONSIN

CITY           SKY/WX    TMP DP  RH WIND       PRES   REMARKS
ANTIGO         FAIR      19  16  90 CALM      30.45S
SHAWANO        FAIR      24  21  89 CALM      30.47R
OCONTO         FAIR      17  14  86 CALM      30.46S
STURGEON BAY   FAIR      28  18  66 CALM      30.47R
GREEN BAY      FAIR      21  17  84 CALM      30.47R
MANITOWOC      FAIR      26  21  81 CALM      30.48R
APPLETON       CLEAR     30  16  55 VRB6      30.45R WCI  24
CLINTONVILLE   FAIR      22  17  81 CALM      30.47R
OSHKOSH        FAIR      27  19  72 CALM      30.46S
$$

WIZ032>034-041-042-053>061-201200-
SOUTHWEST WISCONSIN

CITY           SKY/WX    TMP DP  RH WIND       PRES   REMARKS
LA CROSSE      FAIR      26  23  88 CALM      30.50S
SPARTA         FAIR      16  15  95 CALM      30.51R
VIROQUA        FAIR      30  24  79 CALM      30.48R
BOSCOBEL       FAIR      22  19  89 CALM      30.52R
PRAIRIE DU CHI FAIR      25  22  89 CALM      30.51S
PLATTEVILLE    FAIR      30  27  90 CALM      30.49S
$$

WIZ056-057-062-063-064-067-068-201200-
SOUTH CENTRAL WISCONSIN

CITY           SKY/WX    TMP DP  RH WIND       PRES   REMARKS
REEDSBURG      FAIR      21  21 100 CALM      30.49S
BARABOO/DELLS  FAIR      23  20  89 S3        30.48S
LONE ROCK      FAIR      22  19  89 CALM      30.51R
MINERAL POINT  FAIR      34  27  75 CALM      30.47S
MADISON        FAIR      23  20  88 CALM      30.48S
MIDDLETON      FAIR      26  23  87 CALM      30.49S
WATERTOWN      FAIR      21  20  98 CALM      30.48R
MONROE         FAIR      36  21  55 NW7       30.47S WCI  30
JANESVILLE     CLEAR     27  27 100 CALM      30.49R
$$

WIZ051-052-058>065-066-070>072-201200-
SOUTHEAST WISCONSIN

CITY           SKY/WX    TMP DP  RH WIND       PRES   REMARKS
MILWAUKEE      FAIR      31  22  69 CALM      30.48R
WAUKESHA       CLEAR     30  21  69 W3        30.48R
MILWAUKEE/TIMM FAIR      28  19  69 CALM      30.48S
RACINE         FAIR      31  23  72 CALM      30.49R
BURLINGTON     FAIR      27  23  84 CALM      30.48R
KENOSHA        FAIR      32  21  64 CALM      30.47S
FOND DU LAC    FAIR      25  18  74 S3        30.47S
SHEBOYGAN      FAIR      29  23  78 CALM      30.47R
WEST BEND      FAIR      27  27 100 CALM      30.47S
JUNEAU         FAIR      25  22  88 CALM      30.49R
$$

LSZ147-162-201200-
LAKE SUPERIOR

STATION/POSITION TIME  TEMP    WIND        PRES    WAVE
                       AIR SEA DIR/SP/G            HT/PER
                 (UTC) (F)     (DEG/KT/KT) (MB)    (FT/S)
DEVILS ISLAND    1100   40     230/ 12/ 13 1031.0F
SAXON HARBOR     1040   29     190/  4/  7 1029.8S
$$

LMZ867-665-643>646-201200-
LAKE MICHIGAN

STATION/POSITION TIME  TEMP    WIND        PRES    WAVE
                       AIR SEA DIR/SP/G            HT/PER
                 (UTC) (F)     (DEG/KT/KT) (MB)    (FT/S)
NORTHPORT PIER   1102   35                 1031.2
KEWAUNEE LAKESHO 1042   26     300/  7/  7 1030.7R
SHEBOYGAN LAKESH 1100   36     290/  7/  7 1032.1R
PORT WASHINGTON  1040   35     290/  5/  8 1032.8R
MILWAUKEE LAKESH 1050   36     330/  3/  4   N/A
KENOSHA   LAKESH 1100   38                 1031.8
$$

TC  - TEMPERATURE IN CELSIUS
VSB - VISIBILITY IN STATUTE MILES
WCI - WIND CHILL INDEX
HX  - HEAT INDEX





USA.gov is the U.S. government's official web portal to all federal, state and local government web resources and services.